Regional Weather Roundup
Issued by NWS

Home | Current Version | Previous Version | Graphics & Text | Print | Product List | Glossary On
Versions: 1 2 3 4 5 6 7 8 9 10 11 12 13 14 15 16 17 18 19 20 21 22 23 24 25 26 27 28 29 30 31 32 33 34 35 36 37 38 39 40 41 42 43 44 45 46 47 48 49 50
000
ASUS43 KDMX 070407
RWRIA

WEATHER ROUNDUP FOR IOWA
NATIONAL WEATHER SERVICE DES MOINES IA
1100 PM CDT MON JUL 06 2015

NOTE: "FAIR" INDICATES FEW OR NO CLOUDS BELOW 12,000 FEET WITH NO
SIGNIFICANT WEATHER AND/OR OBSTRUCTIONS TO VISIBILITY.

* - THESE STATIONS ARE NOT NWS STATIONS...THUS NOT UNDER NWS
QUALITY CONTROL.  THEY ALSO DO NOT REPORT WEATHER SUCH
AS PRECIPITATION OR FOG.

IAZ001>003-012>014-020>022-031>034-043>046-070500-
   NORTHWEST IOWA

CITY           SKY/WX    TMP DP  RH WIND       PRES   REMARKS
CARROLL *      CLOUDY    64  59  82 N13G20    30.04R HAZE
CHEROKEE *     CLEAR     59  55  88 N6        30.09S
DENISON *      CLOUDY    64  55  72 N13G20    30.04R
LE MARS *      CLEAR     61  55  82 N3        30.11R
ORANGE CITY *  CLEAR     59  54  82 N5        30.10S
SHELDON *      PTCLDY    55  55 100 N6        30.09R
SIOUX CITY     CLEAR     65  53  65 NE10      30.09R
SPENCER        CLEAR     58  50  75 N6        30.09R
STORM LAKE *   CLEAR     61  52  72 N14G23    30.08S
$$

IAZ055>058-069>071-079>083-090>094-070500-
   SOUTHWEST IOWA

CITY           SKY/WX    TMP DP  RH WIND       PRES   REMARKS
ATLANTIC *     CLOUDY    64  63  94 N8        30.02R FOG
AUDUBON *      CLEAR     64  61  88 N10       30.04R FOG
CLARINDA *     CLOUDY    70  68  94 N9        30.01R FOG
COUNCIL BLFS * MOCLDY    66  63  88 N8        30.05R HAZE
CRESTON *      CLOUDY    68  59  73 N14G24    29.98S HAZE
HARLAN  *      CLEAR     66  66 100 N12G18    30.06S FOG
LAMONI         CLOUDY    67  64  90 NE10      29.96R FOG
RED OAK *      CLOUDY    66  61  82 N8        30.02R HAZE
SHENANDOAH *     N/A     70  61  73 N7G15     30.02R HAZE
$$

IAZ047>049-059>061-072>074-084-070500-
   CENTRAL IOWA

CITY           SKY/WX    TMP DP  RH WIND       PRES   REMARKS
AMES           CLOUDY    65  59  81 N10       29.99S HAZE
ANKENY *       PTCLDY    66  61  82 N7        29.98R HAZE
CHARITON *     CLOUDY    68  61  77 N14       29.95S HAZE
DES MOINES     CLOUDY    69  59  70 N9        29.97R HAZE
GRINNELL*      CLOUDY    64  59  82 N13G21    29.95F HAZE
KNOXVILLE *    CLOUDY    68  57  68 N15G22    29.94S HAZE
MARSHALLTOWN   CLOUDY    64  58  80 N12       29.97R HAZE
PELLA *        CLOUDY    64  64 100 N8G17     29.95F FOG
PERRY *          N/A     66  61  82 N6        30.01R HAZE
$$

IAZ004>006-015-016-023>025-035-036-070500-
   NORTH CENTRAL IOWA

CITY           SKY/WX    TMP DP  RH WIND       PRES   REMARKS
ALGONA *       PTCLDY    63  54  72 N8G15     30.06R
CLARION *      CLOUDY    66  59  77 N13       30.02S HAZE
ESTHERVILLE    CLEAR     57  50  77 N9        30.07R
FORT DODGE *   MOCLDY    64  54  68 N7        30.04R
MASON CITY     CLOUDY    64  60  87 NW10      30.03R FOG
FOREST CITY *  CLEAR     61  54  77 N14       30.04R
IOWA FALLS *     N/A     64  57  77 N5        30.01S HAZE
$$

IAZ007>011-017>019-026>030-037>042-050>054-066-070500-
   NORTHEAST IOWA

CITY           SKY/WX    TMP DP  RH WIND       PRES   REMARKS
CEDAR RAPIDS   CLOUDY    67  62  84 N16       29.92R HAZE
CHARLES CITY * CLEAR     61  61 100 N6        30.00R FOG
CLINTON *      CLOUDY    72  68  88 SW10      29.88F
DECORAH *        N/A    N/A N/A N/A MISG        N/A
DUBUQUE        CLOUDY    65  59  81 N14       29.91R
MONTICELLO *   CLOUDY    66  63  88 N10G20    29.91S
OELWEIN *      CLEAR     63  59  88 N9        29.98R HAZE
WATERLOO       CLOUDY    63  57  81 N9        29.96R HAZE
$$

IAZ064-065-067-068-078-070500-
   EAST CENTRAL IOWA

CITY           SKY/WX    TMP DP  RH WIND       PRES   REMARKS
DAVENPORT      RAIN      71  70  96 SW7       29.87F
IOWA CITY      CLOUDY    70  62  76 N13       29.91R
MT. PLEASANT * DRIZZLE   73  70  88 CALM      29.87F
MUSCATINE *    RAIN      72  72 100 N12       29.88S
QUAD CITIES    LGT RAIN  72  69  90 SW7       29.86F FOG
$$

IAZ062-063-075>077-085>089-095>099-070500-
   SOUTHEAST IOWA

CITY           SKY/WX    TMP DP  RH WIND       PRES   REMARKS
BURLINGTON     LGT RAIN  71  71 100 CALM      29.86F
FAIRFIELD *    CLOUDY    68  64  88 N14       29.90S
FORT MADISON * LGT RAIN  72  72 100 CALM      29.87F
KEOKUK *       CLOUDY    72  70  94 CALM      29.85F
OSKALOOSA *    CLOUDY    66  61  82 N12       29.93S HAZE
CENTERVILLE *  LGT RAIN  66  64  94 N18       29.94R
OTTUMWA        CLOUDY    68  64  87 N14       29.90S FOG
WASHINGTON *   LGT RAIN  68  68 100 N10       29.91S
$$

ABBREVIATIONS USED IN REMARKS
   TC - TEMPERATURES IN CELSIUS
  WCI - WIND CHILL INDEX
   HX - HEAT INDEX
  VSB - VISIBILITY
$$




USA.gov is the U.S. government's official web portal to all federal, state and local government web resources and services.